Regional Weather Roundup
Issued by NWS Lake Charles, LA

Home | Current Version | Previous Version | Text Only | Print | Product List | Glossary On
Versions: 1 2 3 4 5 6 7 8 9 10 11 12 13 14 15 16 17 18 19 20 21 22 23 24 25 26 27
721
ASUS44 KLCH 221910
RWRLCH
RWRLCH
REGIONAL WEATHER ROUNDUP
NATIONAL WEATHER SERVICE LAKE CHARLES LA
200 PM CDT FRI MAY 22 2015

Note: "fair" indicates few or no clouds below 12,000 feet with no
significant weather and/or obstructions to visibility.


ACROSS SOUTHEAST TEXAS

CITY           SKY/WX    TMP DP  RH WIND       PRES   REMARKS
BEAUMONT       CLOUDY    77  67  71 E9        30.14F
BEAUMONT CITY  CLOUDY    75  67  76 SE8       30.15F
ORANGE         CLOUDY    76  65  67 E8        30.16F
JASPER         MOSUNNY   73  65  76 NE6       30.18F
$$

ACROSS CENTRAL LOUISIANA

CITY           SKY/WX    TMP DP  RH WIND       PRES   REMARKS
LEESVILLE      MOSUNNY   71  62  72 VRB3      30.16F
FULLERTON      CLOUDY    75  61  61 CALM      30.15F
ALEXANDRIA INT CLOUDY    71  62  73 E5        30.17F
ESLER FIELD    MOSUNNY   75  61  61 MISG      30.17F
DERIDDER         N/A     74  64  70 NE3       30.18F
OAKDALE        CLOUDY    75  65  70 E6        30.17F
OPELOUSAS      CLOUDY    74  65  73 SE3       30.17S
$$

ACROSS SOUTHWEST AND SOUTH CENTRAL LOUISIANA

CITY           SKY/WX    TMP DP  RH WIND       PRES   REMARKS
SULPHUR        CLEAR     78  67  70 E6        30.15F
LAKE CHARLES   MOSUNNY   76  66  71 E9        30.15F
CHENNAULT INT  NOT AVBL
CAMERON PHI    MOCLDY    77  68  73 SE10      30.17F
DEQUINCY       MOCLDY    76  68  78 NE6       30.15F
JENNINGS       MOCLDY    73  66  77 E8        30.16F
LAFAYETTE      CLOUDY    76  67  73 VRB5      30.16F
NEW IBERIA     CLOUDY    79  68  69 NE6       30.16F
ABBEVILLE      CLOUDY    75  68  78 NE3       30.16S
PATTERSON      PTSUNNY   79  70  73 NE7       30.16F
SALT POINT       N/A     79  70  74 VRB6      30.13F
$$

SELECTED SITES ACROSS THE REGION

CITY           SKY/WX    TMP DP  RH WIND       PRES   REMARKS
HOUSTON BUSH   CLOUDY    75  67  76 SE8       30.13F
HOUSTON HOBBY  CLOUDY    75  68  78 E9        30.13R
GALVESTON      CLOUDY    76  71  85 E12       30.13F
COLLEGE STAT   CLOUDY    77  67  71 E12       30.11F
CONROE         SUNNY     75  64  68 E8        30.13F
HUNTSVILLE     PTSUNNY   74  65  73 E5        30.13F
LUFKIN         PTSUNNY   77  64  64 SE7       30.15F
SHREVEPORT     MOSUNNY   71  58  63 E7        30.18F
MONROE         SUNNY     72  55  55 E8        30.22F
NATCHEZ MS     SUNNY     73  61  64 NE3       30.19F
BATON ROUGE    PTSUNNY   80  66  62 CALM      30.16F
N.O. INTL ARPT MOSUNNY   78  64  61 N9        30.16R
SLIDELL        SUNNY     81  67  62 SE5       30.15S
$$

MARINE REPORTS

STATION/POSITION TIME  TEMP    WIND        PRES    VSBY  WAVE
                       AIR SEA DIR/SP/G                  HT/PER
                 (UTC) (F)     (DEG/KT/KT) (MB)    (MI)  (FT/S)
BUOY 30 S HIGH I 1850   76 80   80/ 16/ 19 1019.1F         3/ 4
SEA RIM ST PARK  1900   74     100/ 11/ 14 1020.9F
PORT ARTHUR      1800      77  100/  7/  9 1021.4F
SABINE PASS N    1800   73 80  100/  6/  8 1021.3F
TEXAS POINT      NOT AVBL
CALCASIEU PASS   1800   74 81  120/ 11/ 13   N/A
LK CHARLES BEACH 1800   73 78              1021.6F
MARSH ISLAND     1800   74      90/ 10/ 13   N/A           0
FRESH WATER LOCK 1800   75 81   80/  8/ 10 1020.9F
AMERADA PASS     1800   75 76  110/  5/  7 1020.8R
$$



USA.gov is the U.S. government's official web portal to all federal, state and local government web resources and services.